Dyersburg, TN

5:44 AM CDT on July 26, 2017 (GMT -0500)
Dyersburg Municipal

Weather History for KDYR - February, 2013

Change the Weather History Date:

Tuesday, February 26, 2013

  Actual Average Record
Temperature  
Mean Temperature 45 °F -  
Max Temperature 51 °F 50 °F 69 °F (1999)
Min Temperature 39 °F 36 °F 21 °F (2014)
Degree Days  
Heating Degree Days 20    
Moisture  
Dew Point 34 °F    
Average Humidity 65    
Maximum Humidity 76    
Minimum Humidity 57    
Precipitation  
Precipitation 0.05 in - - ()
Sea Level Pressure  
Sea Level Pressure 29.51 in    
Wind  
Wind Speed 12 mph (SW)    
Max Wind Speed 22 mph    
Max Gust Speed 30 mph    
Visibility 10 miles    
Events      
Averages and records for this station are not official NWS values.
T = Trace of Precipitation, MM = Missing Value Source: NWS Daily Summary

Daily Weather History Graph

Daily Weather History Graph

Search for Another Location

Airport or City:

Trip Planner

Search our weather history database for the weather conditions in past years. The results will help you decide how hot, cold, wet, or windy it might be!

Date:

Astronomy

Feb. 26, 2013 Rise Set
Actual Time 6:31 AM CST 5:50 PM CST
Civil Twilight 6:05 AM CST 6:15 PM CST
Nautical Twilight 5:35 AM CST 6:45 PM CST
Astronomical Twilight 5:06 AM CST 7:15 PM CST
Moon 7:02 PM CST 6:37 AM CST
Length of Visible Light 12h 10m
Length of Day
11h 18m
Full, 99% of the Moon is Illuminated
Feb 26
Full
Mar 4
Last Quarter
Mar 11
New
Mar 19
First Quarter
Mar 27
Full

Hourly Weather History & Observations

Time (CST) Temp. Windchill Dew Point Humidity Pressure Visibility Wind Dir Wind Speed Gust Speed Precip Events Conditions
12:15 AM 50.0 °F - 41.0 °F 71% 29.39 in 10.0 mi ESE 11.5 mph 21.9 mph N/A   Overcast
12:35 AM 50.0 °F - 41.0 °F 71% 29.39 in 10.0 mi ESE 11.5 mph - N/A   Overcast
12:55 AM 50.0 °F - 42.8 °F 76% 29.39 in 5.0 mi SSE 8.1 mph - 0.01 in   Overcast
1:15 AM 50.0 °F - 42.8 °F 76% 29.36 in 8.0 mi ESE 9.2 mph - N/A   Overcast
1:35 AM 50.0 °F - 42.8 °F 76% 29.34 in 10.0 mi ESE 9.2 mph - N/A   Overcast
1:55 AM 50.0 °F - 42.8 °F 76% 29.34 in 10.0 mi SE 9.2 mph - N/A   Overcast
2:15 AM 50.0 °F - 42.8 °F 76% 29.35 in 10.0 mi SSE 10.4 mph 16.1 mph N/A   Overcast
2:35 AM 51.8 °F - 42.8 °F 71% 29.34 in 10.0 mi SSE 8.1 mph - N/A   Overcast
2:55 AM 51.8 °F - 44.6 °F 76% 29.34 in 10.0 mi SSE 11.5 mph 16.1 mph N/A   Overcast
3:15 AM 51.8 °F - 44.6 °F 76% 29.34 in 10.0 mi SSE 9.2 mph 17.3 mph 0.01 in   Mostly Cloudy
3:35 AM 51.8 °F - 42.8 °F 71% 29.34 in 10.0 mi South 9.2 mph - 0.01 in   Mostly Cloudy
3:55 AM 51.8 °F - 42.8 °F 71% 29.34 in 10.0 mi South 8.1 mph - 0.01 in   Scattered Clouds
4:15 AM 51.8 °F - 42.8 °F 71% 29.35 in 10.0 mi SSW 8.1 mph 16.1 mph N/A   Mostly Cloudy
4:35 AM 51.8 °F - 42.8 °F 71% 29.37 in 10.0 mi SW 16.1 mph 21.9 mph N/A   Mostly Cloudy
4:55 AM 48.2 °F - 39.2 °F 71% 29.38 in 10.0 mi SW 16.1 mph 25.3 mph N/A   Overcast
5:15 AM 48.2 °F - 37.4 °F 66% 29.38 in 10.0 mi SW 12.7 mph 18.4 mph N/A   Overcast
5:35 AM 48.2 °F - 37.4 °F 66% 29.39 in 10.0 mi SW 13.8 mph - N/A   Overcast
5:55 AM 46.4 °F 41.5 °F 37.4 °F 71% 29.39 in 10.0 mi SW 10.4 mph 18.4 mph N/A   Overcast
6:15 AM 46.4 °F 42.4 °F 35.6 °F 66% 29.39 in 10.0 mi SW 8.1 mph - N/A   Overcast
6:35 AM 46.4 °F 42.4 °F 37.4 °F 71% 29.39 in 10.0 mi SW 8.1 mph - N/A   Overcast
6:55 AM 46.4 °F 41.5 °F 37.4 °F 71% 29.40 in 10.0 mi SW 10.4 mph 16.1 mph N/A   Overcast
7:15 AM 46.4 °F 41.5 °F 37.4 °F 71% 29.40 in 10.0 mi SW 10.4 mph - N/A   Overcast
7:35 AM 46.4 °F 40.7 °F 37.4 °F 71% 29.41 in 8.0 mi SW 12.7 mph - 0.01 in   Mostly Cloudy
7:55 AM 46.4 °F 41.1 °F 35.6 °F 66% 29.42 in 10.0 mi SW 11.5 mph 19.6 mph 0.01 in   Overcast
8:15 AM 46.4 °F 40.7 °F 35.6 °F 66% 29.43 in 10.0 mi SW 12.7 mph 19.6 mph N/A   Mostly Cloudy
8:35 AM 46.4 °F 40.7 °F 35.6 °F 66% 29.44 in 10.0 mi SW 12.7 mph 18.4 mph N/A   Overcast
8:55 AM 46.4 °F 40.4 °F 33.8 °F 62% 29.44 in 10.0 mi SW 13.8 mph 21.9 mph N/A   Overcast
9:15 AM 46.4 °F 40.4 °F 33.8 °F 62% 29.45 in 10.0 mi SW 13.8 mph 19.6 mph N/A   Overcast
9:35 AM 46.4 °F 42.4 °F 33.8 °F 62% 29.45 in 10.0 mi SSW 8.1 mph 16.1 mph N/A   Overcast
9:55 AM 44.6 °F 38.8 °F 33.8 °F 66% 29.46 in 10.0 mi SW 11.5 mph 18.4 mph N/A   Overcast
10:15 AM 44.6 °F 36.1 °F 33.8 °F 66% 29.47 in 10.0 mi SW 21.9 mph 27.6 mph N/A   Overcast
10:35 AM 44.6 °F 38.1 °F 33.8 °F 66% 29.48 in 10.0 mi SW 13.8 mph 26.5 mph N/A   Overcast
10:55 AM 44.6 °F 39.7 °F 32.0 °F 61% 29.48 in 10.0 mi SW 9.2 mph 18.4 mph N/A   Overcast
11:15 AM 44.6 °F 38.8 °F 32.0 °F 61% 29.48 in 10.0 mi SSW 11.5 mph 16.1 mph N/A   Overcast
11:35 AM 44.6 °F 39.2 °F 32.0 °F 61% 29.48 in 10.0 mi SSW 10.4 mph 17.3 mph N/A   Overcast
11:55 AM 44.6 °F 38.8 °F 32.0 °F 61% 29.48 in 10.0 mi SSW 11.5 mph 18.4 mph N/A   Overcast
12:15 PM 44.6 °F 38.1 °F 32.0 °F 61% 29.49 in 10.0 mi SW 13.8 mph 23.0 mph N/A   Overcast
12:35 PM 44.6 °F 39.2 °F 30.2 °F 57% 29.49 in 10.0 mi SW 10.4 mph 20.7 mph N/A   Overcast
12:55 PM 44.6 °F 36.9 °F 30.2 °F 57% 29.50 in 10.0 mi SW 18.4 mph 28.8 mph N/A   Overcast
1:15 PM 42.8 °F 34.8 °F 32.0 °F 66% 29.50 in 7.0 mi SW 17.3 mph 28.8 mph N/A   Overcast
1:35 PM 42.8 °F 34.8 °F 30.2 °F 61% 29.50 in 10.0 mi SW 17.3 mph 24.2 mph N/A   Overcast
1:55 PM 42.8 °F 37.0 °F 32.0 °F 66% 29.51 in 10.0 mi SW 10.4 mph 24.2 mph N/A   Overcast
2:15 PM 41.0 °F 31.6 °F 30.2 °F 65% 29.52 in 8.0 mi SW 20.7 mph 26.5 mph 0.01 in   Overcast
2:35 PM 41.0 °F 32.5 °F 30.2 °F 65% 29.53 in 10.0 mi SW 17.3 mph 28.8 mph 0.01 in   Overcast
2:55 PM 39.2 °F 30.2 °F 30.2 °F 70% 29.54 in 10.0 mi SW 17.3 mph 29.9 mph 0.01 in   Overcast
3:15 PM 41.0 °F 32.8 °F 30.2 °F 65% 29.55 in 10.0 mi SW 16.1 mph 25.3 mph N/A   Overcast
3:35 PM 41.0 °F 31.9 °F 30.2 °F 65% 29.55 in 10.0 mi SW 19.6 mph 25.3 mph N/A   Overcast
3:55 PM 42.8 °F 35.4 °F 30.2 °F 61% 29.56 in 10.0 mi SW 15.0 mph 18.4 mph N/A   Overcast
4:15 PM 42.8 °F 35.4 °F 30.2 °F 61% 29.57 in 10.0 mi WSW 15.0 mph 21.9 mph N/A   Overcast
4:35 PM 42.8 °F 35.1 °F 30.2 °F 61% 29.57 in 10.0 mi WSW 16.1 mph 25.3 mph N/A   Overcast
4:55 PM 42.8 °F 35.1 °F 30.2 °F 61% 29.58 in 10.0 mi WSW 16.1 mph 21.9 mph N/A   Overcast
5:15 PM 39.2 °F 30.8 °F 30.2 °F 70% 29.59 in 10.0 mi WSW 15.0 mph 19.6 mph 0.01 in   Mostly Cloudy
5:35 PM 41.0 °F 33.1 °F 30.2 °F 65% 29.61 in 10.0 mi WSW 15.0 mph 20.7 mph 0.01 in   Overcast
5:55 PM 41.0 °F 33.5 °F 28.4 °F 61% 29.61 in 10.0 mi WSW 13.8 mph 25.3 mph 0.01 in   Overcast
6:15 PM 41.0 °F 32.2 °F 28.4 °F 61% 29.63 in 10.0 mi West 18.4 mph 24.2 mph N/A   Mostly Cloudy
6:35 PM 41.0 °F 33.5 °F 28.4 °F 61% 29.65 in 10.0 mi West 13.8 mph 20.7 mph N/A   Overcast
6:55 PM 41.0 °F 32.5 °F 28.4 °F 61% 29.66 in 10.0 mi West 17.3 mph 21.9 mph N/A   Overcast
7:15 PM 41.0 °F 32.2 °F 26.6 °F 57% 29.68 in 10.0 mi West 18.4 mph 27.6 mph N/A   Overcast
7:35 PM 41.0 °F 31.9 °F 26.6 °F 57% 29.68 in 10.0 mi West 19.6 mph 28.8 mph N/A   Overcast
7:55 PM 39.2 °F 29.8 °F 26.6 °F 61% 29.69 in 10.0 mi West 18.4 mph 24.2 mph N/A   Overcast
8:15 PM 39.2 °F 30.8 °F 28.4 °F 65% 29.70 in 10.0 mi WSW 15.0 mph 21.9 mph N/A   Overcast
8:35 PM 39.2 °F 31.2 °F 26.6 °F 61% 29.72 in 10.0 mi West 13.8 mph 23.0 mph N/A   Overcast
8:55 PM 39.2 °F 30.2 °F 26.6 °F 61% 29.73 in 10.0 mi West 17.3 mph 25.3 mph N/A   Overcast
9:15 PM 39.2 °F 30.8 °F 26.6 °F 61% 29.74 in 10.0 mi West 15.0 mph 26.5 mph N/A   Overcast
9:35 PM 39.2 °F 31.6 °F 26.6 °F 61% 29.74 in 10.0 mi West 12.7 mph 19.6 mph N/A   Overcast
9:55 PM 39.2 °F 31.2 °F 26.6 °F 61% 29.75 in 10.0 mi West 13.8 mph 19.6 mph N/A   Overcast
10:15 PM 39.2 °F 30.5 °F 26.6 °F 61% 29.76 in 10.0 mi West 16.1 mph 21.9 mph N/A   Overcast
10:55 PM 39.2 °F 30.5 °F 26.6 °F 61% 29.77 in 10.0 mi West 16.1 mph 21.9 mph N/A   Overcast
11:15 PM 39.2 °F 31.2 °F 26.6 °F 61% 29.77 in 10.0 mi West 13.8 mph - N/A   Overcast
11:35 PM 39.2 °F 31.2 °F 26.6 °F 61% 29.78 in 10.0 mi West 13.8 mph 19.6 mph N/A   Overcast
11:55 PM 39.2 °F 30.8 °F 26.6 °F 61% 29.79 in 10.0 mi West 15.0 mph 19.6 mph N/A   Overcast